| time (UTC) | temp F | wind direction | speed knots | gust knots | rain 1hr in | rain 24hr in | rain mn in | humidity % | barometer mb |
| 20260507080028 | 72 | 315 | 3.5 | 9.6 | 0.00 | 0.00 | 0.00 | 58 | 1013.9 |
| 20260507075528 | 72 | 270 | 4.3 | 7.8 | 0.00 | 0.00 | 0.00 | 60 | 1014.0 |
| 20260507075028 | 72 | 270 | 1.7 | 6.1 | 0.00 | 0.00 | 0.00 | 60 | 1014.0 |
| 20260507074528 | 72 | 225 | 1.7 | 7.0 | 0.00 | 0.00 | 0.00 | 60 | 1013.9 |
| 20260507074028 | 72 | 270 | 4.3 | 7.8 | 0.00 | 0.00 | 0.00 | 60 | 1013.9 |
| 20260507073527 | 71 | 225 | 3.5 | 7.0 | 0.00 | 0.00 | 0.00 | 61 | 1013.9 |
| 20260507073028 | 71 | 248 | 1.7 | 5.2 | 0.00 | 0.00 | 0.00 | 61 | 1013.8 |
| 20260507072528 | 71 | 315 | 3.5 | 7.0 | 0.00 | 0.00 | 0.00 | 61 | 1013.9 |
| 20260507072027 | 70 | 270 | 3.5 | 7.0 | 0.00 | 0.00 | 0.00 | 60 | 1013.9 |
| 20260507071527 | 70 | 293 | 2.6 | 7.0 | 0.00 | 0.00 | 0.00 | 61 | 1013.9 |
| 20260507071028 | 69 | 270 | 3.5 | 7.0 | 0.00 | 0.00 | 0.00 | 60 | 1013.9 |
| 20260507070527 | 70 | 248 | 2.6 | 9.6 | 0.00 | 0.00 | 0.00 | 60 | 1013.9 |
| 20260507070027 | 69 | 225 | 2.6 | 9.6 | 0.00 | 0.00 | 0.00 | 61 | 1013.9 |
| 20260507065528 | 70 | 270 | 1.7 | 8.7 | 0.00 | 0.00 | 0.00 | 61 | 1013.8 |
| 20260507065027 | 70 | 270 | 1.7 | 5.2 | 0.00 | 0.00 | 0.00 | 61 | 1013.8 |
| 20260507064527 | 69 | 0 | 4.3 | 7.8 | 0.00 | 0.00 | 0.00 | 62 | 1013.9 |
| 20260507064027 | 69 | 225 | 3.5 | 7.0 | 0.00 | 0.00 | 0.00 | 62 | 1013.9 |
| 20260507063527 | 69 | 270 | 1.7 | 6.1 | 0.00 | 0.00 | 0.00 | 61 | 1014.0 |
| 20260507063027 | 69 | 225 | 2.6 | 7.0 | 0.00 | 0.00 | 0.00 | 64 | 1014.0 |
| 20260507062527 | 68 | 270 | 3.5 | 7.0 | 0.00 | 0.00 | 0.00 | 64 | 1014.0 |
| 20260507062027 | 67 | 315 | 1.7 | 7.0 | 0.00 | 0.00 | 0.00 | 63 | 1013.9 |
| 20260507061527 | 67 | 225 | 3.5 | 7.0 | 0.00 | 0.00 | 0.00 | 66 | 1013.9 |
| 20260507061027 | 67 | 270 | 4.3 | 7.0 | 0.00 | 0.00 | 0.00 | 67 | 1014.0 |
| 20260507060527 | 66 | 0 | 1.7 | 7.0 | 0.00 | 0.00 | 0.00 | 68 | 1014.0 |
| 20260507060027 | 65 | 225 | 1.7 | 7.0 | 0.00 | 0.00 | 0.00 | 69 | 1014.0 |
| 20260507055527 | 64 | 270 | 1.7 | 7.0 | 0.00 | 0.00 | 0.00 | 71 | 1014.1 |
| 20260507055027 | 63 | 270 | 1.7 | 6.1 | 0.00 | 0.00 | 0.00 | 73 | 1014.1 |
| 20260507054527 | 63 | 270 | 2.6 | 6.1 | 0.00 | 0.00 | 0.00 | 75 | 1014.1 |
| 20260507054026 | 62 | 270 | 1.7 | 7.0 | 0.00 | 0.00 | 0.00 | 76 | 1014.1 |
| 20260507053527 | 61 | 270 | 1.7 | 4.3 | 0.00 | 0.00 | 0.00 | 76 | 1014.1 |
| 20260507053027 | 61 | 225 | 1.7 | 6.1 | 0.00 | 0.00 | 0.00 | 78 | 1014.2 |
| 20260507052526 | 61 | 248 | 3.5 | 6.1 | 0.00 | 0.00 | 0.00 | 79 | 1014.2 |
| 20260507052027 | 60 | 315 | 1.7 | 4.3 | 0.00 | 0.00 | 0.00 | 81 | 1014.3 |
| 20260507051526 | 60 | 270 | 1.7 | 5.2 | 0.00 | 0.00 | 0.00 | 81 | 1014.3 |
| 20260507051026 | 60 | 270 | 3.5 | 6.1 | 0.00 | 0.00 | 0.00 | 81 | 1014.4 |
| 20260507050527 | 59 | 338 | 0.0 | 3.5 | 0.00 | 0.00 | 0.00 | 83 | 1014.4 |
| 20260507050026 | 59 | 270 | 0.9 | 4.3 | 0.00 | 0.00 | 0.00 | 83 | 1014.5 |
| 20260507045526 | 58 | 248 | 1.7 | 4.3 | 0.00 | 0.00 | 0.00 | 87 | 1014.4 |
| 20260507045027 | 56 | 270 | 1.7 | 4.3 | 0.00 | 0.00 | 0.00 | 90 | 1014.4 |
| 20260507044526 | 54 | 315 | 1.7 | 7.8 | 0.00 | 0.00 | 0.00 | 92 | 1014.3 |
| 20260507044026 | 54 | 293 | 1.7 | 7.0 | 0.00 | 0.00 | 0.00 | 92 | 1014.1 |
| 20260507043526 | 54 | 225 | 1.7 | 6.1 | 0.00 | 0.00 | 0.00 | 93 | 1014.1 |
| 20260507043026 | 54 | 270 | 3.5 | 6.1 | 0.00 | 0.00 | 0.00 | 93 | 1014.0 |
| 20260507042527 | 53 | 270 | 2.6 | 7.0 | 0.00 | 0.00 | 0.00 | 94 | 1014.1 |
| 20260507042026 | 53 | 225 | 1.7 | 7.0 | 0.00 | 0.00 | 0.00 | 94 | 1014.0 |
| 20260507041526 | 52 | 293 | 1.7 | 7.0 | 0.00 | 0.00 | 0.00 | 95 | 1014.1 |
| 20260507041026 | 52 | 270 | 1.7 | 6.1 | 0.00 | 0.00 | 0.00 | 96 | 1013.9 |
| 20260507040525 | 51 | 225 | 1.7 | 6.1 | 0.00 | 0.00 | 0.00 | 96 | 1013.8 |
| 20260507040026 | 51 | 225 | 3.5 | 7.0 | 0.00 | 0.00 | 0.00 | 96 | 1013.8 |
| 20260507035526 | 50 | 225 | 3.5 | 7.0 | 0.00 | 0.00 | 0.00 | 95 | 1013.8 |
| 20260507035025 | 50 | 270 | 3.5 | 9.6 | 0.00 | 0.00 | 0.00 | 94 | 1013.6 |
| 20260507034526 | 50 | 225 | 1.7 | 5.2 | 0.00 | 0.00 | 0.00 | 94 | 1013.6 |
| 20260507034026 | 50 | 270 | 1.7 | 6.1 | 0.00 | 0.00 | 0.00 | 94 | 1013.6 |
| 20260507033526 | 50 | 225 | 0.9 | 4.3 | 0.00 | 0.00 | 0.00 | 94 | 1013.6 |
| 20260507033026 | 50 | 270 | 1.7 | 4.3 | 0.00 | 0.00 | 0.00 | 94 | 1013.5 |
| 20260507032525 | 50 | 225 | 1.7 | 4.3 | 0.00 | 0.00 | 0.00 | 94 | 1013.5 |
| 20260507032025 | 50 | 270 | 1.7 | 4.3 | 0.00 | 0.00 | 0.00 | 94 | 1013.4 |
| 20260507031526 | 49 | 225 | 1.7 | 3.5 | 0.00 | 0.00 | 0.00 | 94 | 1013.4 |
| 20260507031025 | 49 | 270 | 1.7 | 3.5 | 0.00 | 0.00 | 0.00 | 94 | 1013.4 |
| 20260507030525 | 49 | 225 | 1.7 | 4.3 | 0.00 | 0.00 | 0.00 | 93 | 1013.3 |
| 20260507030026 | 49 | 248 | 1.7 | 4.3 | 0.00 | 0.00 | 0.00 | 93 | 1013.2 |
| 20260507025525 | 49 | 270 | 0.9 | 4.3 | 0.00 | 0.00 | 0.00 | 93 | 1013.1 |
| 20260507025025 | 49 | 225 | 1.7 | 3.5 | 0.00 | 0.00 | 0.00 | 93 | 1013.0 |
| 20260507024525 | 49 | 270 | 0.9 | 4.3 | 0.00 | 0.00 | 0.00 | 93 | 1013.0 |
| 20260507024025 | 49 | 225 | 1.7 | 4.3 | 0.00 | 0.00 | 0.00 | 93 | 1012.9 |
| 20260507023525 | 49 | 270 | 0.9 | 3.5 | 0.00 | 0.00 | 0.00 | 93 | 1012.8 |
| 20260507023025 | 49 | 248 | 1.7 | 4.3 | 0.00 | 0.00 | 0.00 | 93 | 1012.7 |
| 20260507022525 | 49 | 248 | 0.0 | 2.6 | 0.00 | 0.00 | 0.00 | 94 | 1012.7 |
| 20260507022025 | 49 | 293 | 0.0 | 3.5 | 0.00 | 0.00 | 0.00 | 94 | 1012.5 |
| 20260507021525 | 49 | 225 | 1.7 | 3.5 | 0.00 | 0.00 | 0.00 | 94 | 1012.5 |
| 20260507021024 | 49 | 225 | 1.7 | 2.6 | 0.00 | 0.00 | 0.00 | 94 | 1012.6 |
| 20260507020525 | 49 | 270 | 0.0 | 0.9 | 0.00 | 0.00 | 0.00 | 94 | 1012.5 |
| 20260507020024 | 49 | 270 | 0.0 | 1.7 | 0.00 | 0.00 | 0.00 | 94 | 1012.4 |
| 20260507015525 | 49 | 225 | 0.0 | 1.7 | 0.00 | 0.00 | 0.00 | 94 | 1012.3 |
| 20260507015025 | 49 | 270 | 0.9 | 3.5 | 0.00 | 0.00 | 0.00 | 94 | 1012.3 |
| 20260507014524 | 49 | 270 | 0.9 | 1.7 | 0.00 | 0.00 | 0.00 | 94 | 1012.2 |
| 20260507014025 | 49 | 225 | 0.0 | 1.7 | 0.00 | 0.00 | 0.00 | 94 | 1012.2 |
| 20260507013525 | 49 | 270 | 0.0 | 1.7 | 0.00 | 0.00 | 0.00 | 94 | 1012.2 |
| 20260507013024 | 50 | 270 | 0.0 | 0.9 | 0.00 | 0.00 | 0.00 | 94 | 1012.2 |
| 20260507012524 | 50 | 315 | 0.0 | 0.0 | 0.00 | 0.00 | 0.00 | 94 | 1012.2 |
| 20260507012024 | 50 | 270 | 0.0 | 1.7 | 0.00 | 0.00 | 0.00 | 94 | 1012.2 |
| 20260507011524 | 50 | 315 | 0.0 | 3.5 | 0.00 | 0.00 | 0.00 | 94 | 1012.1 |
| 20260507011025 | 50 | 270 | 0.9 | 4.3 | 0.00 | 0.00 | 0.00 | 94 | 1012.1 |
| 20260507010524 | 50 | 225 | 1.7 | 5.2 | 0.00 | 0.00 | 0.00 | 93 | 1012.0 |
| 20260507010024 | 49 | 270 | 1.7 | 2.6 | 0.00 | 0.00 | 0.00 | 92 | 1011.9 |
| 20260507005525 | 50 | 248 | 0.9 | 1.7 | 0.00 | 0.00 | 0.00 | 92 | 1012.0 |
| 20260507005024 | 50 | 225 | 0.0 | 1.7 | 0.00 | 0.00 | 0.00 | 92 | 1012.0 |
| 20260507004524 | 50 | 0 | 0.0 | 0.0 | 0.00 | 0.00 | 0.00 | 92 | 1011.9 |
| 20260507004024 | 50 | 225 | 0.0 | 1.7 | 0.00 | 0.00 | 0.00 | 91 | 1011.9 |
| 20260507003524 | 50 | 270 | 0.0 | 2.6 | 0.00 | 0.00 | 0.00 | 91 | 1011.9 |
| 20260507003024 | 50 | 270 | 0.0 | 0.9 | 0.00 | 0.00 | 0.00 | 91 | 1011.8 |
| 20260507002524 | 50 | 270 | 0.0 | 1.7 | 0.00 | 0.00 | 0.00 | 90 | 1011.8 |
| 20260507002024 | 50 | 270 | 0.0 | 1.7 | 0.00 | 0.00 | 0.00 | 90 | 1011.8 |
| 20260507001524 | 50 | 0 | 0.0 | 0.0 | 0.00 | 0.00 | 0.00 | 89 | 1011.8 |
| 20260507001024 | 50 | 270 | 0.0 | 0.9 | 0.00 | 0.00 | 0.00 | 88 | 1011.8 |
| 20260507000523 | 51 | 315 | 0.0 | 0.0 | 0.00 | 0.00 | 0.00 | 89 | 1011.8 |
| 20260507000024 | 50 | 315 | 0.0 | 0.9 | 0.00 | 0.00 | 0.00 | 89 | 1011.8 |
| 20260506235523 | 50 | 315 | 0.0 | 0.9 | 0.00 | 0.00 | 0.00 | 89 | 1011.7 |
| 20260506235024 | 50 | 0 | 0.0 | 0.0 | 0.00 | 0.00 | 0.00 | 89 | 1011.6 |
| 20260506234524 | 51 | 315 | 0.0 | 0.0 | 0.00 | 0.00 | 0.00 | 89 | 1011.6 |
| 20260506234023 | 51 | 0 | 0.0 | 1.7 | 0.00 | 0.00 | 0.00 | 89 | 1011.6 |
| 20260506233524 | 51 | 315 | 0.0 | 1.7 | 0.00 | 0.00 | 0.00 | 88 | 1011.4 |
| 20260506233023 | 51 | 270 | 0.0 | 2.6 | 0.00 | 0.00 | 0.00 | 88 | 1011.4 |
| 20260506232523 | 51 | 270 | 0.9 | 3.5 | 0.00 | 0.00 | 0.00 | 87 | 1011.4 |
| 20260506232024 | 51 | 270 | 0.0 | 1.7 | 0.00 | 0.00 | 0.00 | 88 | 1011.4 |
| 20260506231523 | 51 | 270 | 0.0 | 3.5 | 0.00 | 0.00 | 0.00 | 88 | 1011.5 |
| 20260506231023 | 51 | 315 | 0.0 | 2.6 | 0.00 | 0.00 | 0.00 | 88 | 1011.5 |
| 20260506230523 | 51 | 270 | 0.9 | 3.5 | 0.00 | 0.00 | 0.00 | 88 | 1011.6 |
| 20260506230023 | 51 | 270 | 0.0 | 1.7 | 0.00 | 0.00 | 0.00 | 87 | 1011.6 |
| 20260506225522 | 51 | 315 | 0.0 | 0.0 | 0.00 | 0.00 | 0.00 | 87 | 1011.6 |
| 20260506225023 | 51 | 315 | 0.0 | 0.0 | 0.00 | 0.00 | 0.00 | 87 | 1011.6 |
| 20260506224523 | 51 | 0 | 0.0 | 0.0 | 0.00 | 0.00 | 0.00 | 88 | 1011.6 |
| 20260506224023 | 51 | 0 | 0.0 | 0.0 | 0.00 | 0.00 | 0.00 | 88 | 1011.5 |
| 20260506223523 | 51 | 270 | 0.0 | 0.0 | 0.00 | 0.00 | 0.00 | 87 | 1011.5 |
| 20260506223023 | 51 | 270 | 0.0 | 0.0 | 0.00 | 0.00 | 0.00 | 86 | 1011.5 |
| 20260506222523 | 52 | 0 | 0.0 | 0.0 | 0.00 | 0.00 | 0.00 | 86 | 1011.6 |
| 20260506222023 | 52 | 0 | 0.0 | 0.0 | 0.00 | 0.00 | 0.00 | 86 | 1011.7 |
| 20260506221522 | 52 | 0 | 0.0 | 0.0 | 0.00 | 0.00 | 0.00 | 86 | 1011.6 |
| 20260506221023 | 52 | 0 | 0.0 | 0.0 | 0.00 | 0.00 | 0.00 | 86 | 1011.5 |
| 20260506220522 | 52 | 0 | 0.0 | 0.0 | 0.00 | 0.00 | 0.00 | 87 | 1011.6 |
| 20260506220023 | 52 | 270 | 0.0 | 0.0 | 0.00 | 0.00 | 0.00 | 86 | 1011.5 |
| 20260506215523 | 52 | 270 | 0.0 | 0.0 | 0.00 | 0.00 | 0.00 | 85 | 1011.5 |
| 20260506215022 | 53 | 315 | 0.0 | 0.0 | 0.00 | 0.00 | 0.00 | 85 | 1011.5 |
| 20260506214523 | 53 | 315 | 0.0 | 0.0 | 0.00 | 0.00 | 0.00 | 84 | 1011.5 |
| 20260506214022 | 53 | 0 | 0.0 | 0.0 | 0.00 | 0.00 | 0.00 | 84 | 1011.5 |
| 20260506213523 | 54 | 315 | 0.0 | 0.0 | 0.00 | 0.00 | 0.00 | 83 | 1011.4 |
| 20260506213022 | 54 | 315 | 0.0 | 1.7 | 0.00 | 0.00 | 0.00 | 82 | 1011.5 |
| 20260506212523 | 54 | 315 | 0.0 | 1.7 | 0.00 | 0.00 | 0.00 | 82 | 1011.4 |
| 20260506212022 | 54 | 0 | 0.0 | 0.9 | 0.00 | 0.00 | 0.00 | 81 | 1011.4 |
| 20260506211522 | 54 | 90 | 0.0 | 1.7 | 0.00 | 0.00 | 0.00 | 81 | 1011.4 |
| 20260506211022 | 54 | 338 | 0.0 | 1.7 | 0.00 | 0.00 | 0.00 | 82 | 1011.4 |
| 20260506210522 | 54 | 0 | 0.0 | 0.9 | 0.00 | 0.00 | 0.00 | 82 | 1011.3 |
| 20260506210022 | 54 | 315 | 0.0 | 1.7 | 0.00 | 0.00 | 0.00 | 82 | 1011.4 |
| 20260506205522 | 54 | 315 | 0.0 | 0.9 | 0.00 | 0.00 | 0.00 | 82 | 1011.3 |
| 20260506205023 | 55 | 270 | 0.0 | 0.9 | 0.00 | 0.00 | 0.00 | 82 | 1011.2 |
| 20260506204522 | 55 | 315 | 0.0 | 1.7 | 0.00 | 0.00 | 0.00 | 81 | 1011.3 |
| 20260506204022 | 55 | 270 | 0.9 | 2.6 | 0.00 | 0.00 | 0.00 | 81 | 1011.3 |
| 20260506203522 | 55 | 0 | 0.0 | 1.7 | 0.00 | 0.00 | 0.00 | 81 | 1011.3 |
| 20260506203022 | 55 | 270 | 0.0 | 0.9 | 0.00 | 0.00 | 0.00 | 80 | 1011.3 |
| 20260506202520 | 55 | 270 | 0.0 | 1.7 | 0.00 | 0.00 | 0.00 | 80 | 1011.2 |
| 20260506202022 | 55 | 180 | 0.0 | 2.6 | 0.00 | 0.00 | 0.00 | 80 | 1011.1 |
| 20260506201522 | 56 | 270 | 0.9 | 2.6 | 0.00 | 0.00 | 0.00 | 80 | 1011.1 |
| 20260506201020 | 56 | 248 | 0.9 | 2.6 | 0.00 | 0.00 | 0.00 | 79 | 1011.1 |
| 20260506200521 | 56 | 270 | 1.7 | 4.3 | 0.00 | 0.00 | 0.00 | 78 | 1011.0 |
| 20260506200020 | 57 | 270 | 0.9 | 3.5 | 0.00 | 0.00 | 0.00 | 77 | 1011.0 |
| 20260506195521 | 57 | 225 | 1.7 | 4.3 | 0.00 | 0.00 | 0.00 | 77 | 1011.0 |
| 20260506195021 | 57 | 0 | 0.9 | 6.1 | 0.00 | 0.00 | 0.00 | 77 | 1011.0 |
| 20260506194520 | 57 | 225 | 1.7 | 4.3 | 0.00 | 0.00 | 0.00 | 76 | 1011.0 |
| 20260506194019 | 57 | 225 | 0.9 | 3.5 | 0.00 | 0.00 | 0.00 | 76 | 1011.0 |
| 20260506193520 | 57 | 248 | 0.9 | 3.5 | 0.00 | 0.00 | 0.00 | 76 | 1011.1 |
| 20260506193020 | 57 | 225 | 0.9 | 4.3 | 0.00 | 0.00 | 0.00 | 76 | 1011.1 |
| 20260506192003 | 57 | 0 | 0.0 | 1.7 | 0.00 | 0.00 | 0.00 | 76 | 1011.0 |
| 20260506191504 | 57 | 315 | 0.0 | 1.7 | 0.00 | 0.00 | 0.00 | 76 | 1011.1 |
| 20260506191003 | 57 | 315 | 0.0 | 2.6 | 0.00 | 0.00 | 0.00 | 76 | 1011.0 |
| 20260506190501 | 57 | 270 | 0.0 | 1.7 | 0.00 | 0.00 | 0.00 | 77 | 1011.1 |
| 20260506190001 | 57 | 270 | 0.0 | 0.0 | 0.00 | 0.00 | 0.00 | 77 | 1011.1 |
| 20260506185501 | 57 | 315 | 0.0 | 0.0 | 0.00 | 0.00 | 0.00 | 78 | 1011.1 |
| 20260506185002 | 57 | 315 | 0.0 | 0.0 | 0.00 | 0.00 | 0.00 | 77 | 1011.1 |
| 20260506184501 | 58 | 315 | 0.0 | 0.0 | 0.00 | 0.00 | 0.00 | 75 | 1011.1 |
| 20260506184002 | 58 | 315 | 0.0 | 0.0 | 0.00 | 0.00 | 0.00 | 75 | 1011.0 |
| 20260506183500 | 58 | 315 | 0.0 | 0.0 | 0.00 | 0.00 | 0.00 | 73 | 1011.0 |
| 20260506183000 | 58 | 315 | 0.0 | 0.0 | 0.00 | 0.00 | 0.00 | 72 | 1010.9 |
| 20260506182500 | 59 | 315 | 0.0 | 0.0 | 0.00 | 0.00 | 0.00 | 71 | 1010.9 |
| 20260506182000 | 59 | 315 | 0.0 | 1.7 | 0.00 | 0.00 | 0.00 | 71 | 1010.8 |
| 20260506181500 | 59 | 315 | 0.0 | 1.7 | 0.00 | 0.00 | 0.00 | 71 | 1010.7 |
| 20260506181000 | 59 | 270 | 0.9 | 2.6 | 0.00 | 0.00 | 0.00 | 70 | 1010.8 |
| 20260506180458 | 59 | 0 | 0.9 | 3.5 | 0.00 | 0.00 | 0.00 | 70 | 1010.8 |
| 20260506175958 | 60 | 225 | 0.0 | 1.7 | 0.00 | 0.00 | 0.00 | 71 | 1010.9 |
| 20260506175457 | 60 | 225 | 0.0 | 0.0 | 0.00 | 0.00 | 0.00 | 71 | 1010.8 |
| 20260506174957 | 60 | 270 | 0.0 | 0.9 | 0.00 | 0.00 | 0.00 | 70 | 1010.8 |
| 20260506174458 | 60 | 0 | 0.0 | 0.9 | 0.00 | 0.00 | 0.00 | 69 | 1010.7 |
| 20260506173958 | 61 | 270 | 0.0 | 0.9 | 0.00 | 0.00 | 0.00 | 69 | 1010.7 |
| 20260506173458 | 61 | 270 | 0.0 | 0.9 | 0.00 | 0.00 | 0.00 | 68 | 1010.6 |
| 20260506172958 | 61 | 0 | 0.0 | 1.7 | 0.00 | 0.00 | 0.00 | 68 | 1010.6 |
| 20260506172457 | 62 | 270 | 0.0 | 1.7 | 0.00 | 0.00 | 0.00 | 67 | 1010.5 |
| 20260506171957 | 62 | 270 | 0.0 | 1.7 | 0.00 | 0.00 | 0.00 | 67 | 1010.6 |
| 20260506171456 | 62 | 270 | 0.0 | 1.7 | 0.00 | 0.00 | 0.00 | 67 | 1010.5 |
| 20260506170956 | 62 | 225 | 0.0 | 1.7 | 0.00 | 0.00 | 0.00 | 67 | 1010.4 |
| 20260506170455 | 62 | 225 | 0.0 | 1.7 | 0.00 | 0.00 | 0.00 | 66 | 1010.5 |
| 20260506165955 | 63 | 270 | 0.0 | 1.7 | 0.00 | 0.00 | 0.00 | 67 | 1010.4 |
| 20260506165454 | 63 | 0 | 0.0 | 1.7 | 0.00 | 0.00 | 0.00 | 66 | 1010.3 |
| 20260506164954 | 63 | 0 | 0.0 | 1.7 | 0.00 | 0.00 | 0.00 | 64 | 1010.3 |
| 20260506164454 | 63 | 270 | 0.0 | 1.7 | 0.00 | 0.00 | 0.00 | 64 | 1010.3 |
| 20260506163954 | 64 | 270 | 0.0 | 1.7 | 0.00 | 0.00 | 0.00 | 64 | 1010.3 |
| 20260506162954 | 64 | 270 | 0.0 | 1.7 | 0.00 | 0.00 | 0.00 | 62 | 1010.1 |
| 20260506162454 | 65 | 315 | 0.0 | 1.7 | 0.00 | 0.00 | 0.00 | 61 | 1010.1 |
| 20260506161954 | 65 | 0 | 0.0 | 2.6 | 0.00 | 0.00 | 0.00 | 60 | 1010.1 |
| 20260506161454 | 65 | 270 | 0.0 | 2.6 | 0.00 | 0.00 | 0.00 | 59 | 1010.0 |
| 20260506160955 | 66 | 315 | 0.9 | 2.6 | 0.00 | 0.00 | 0.00 | 58 | 1010.0 |
| 20260506160454 | 66 | 270 | 0.0 | 2.6 | 0.00 | 0.00 | 0.00 | 57 | 1010.0 |
| 20260506155953 | 66 | 270 | 0.9 | 3.5 | 0.00 | 0.00 | 0.00 | 57 | 1009.9 |
| 20260506155454 | 67 | 270 | 0.0 | 2.6 | 0.00 | 0.00 | 0.00 | 56 | 1009.9 |
| 20260506154954 | 67 | 180 | 0.9 | 3.5 | 0.00 | 0.00 | 0.00 | 55 | 1009.9 |
| 20260506154454 | 67 | 270 | 1.7 | 4.3 | 0.00 | 0.00 | 0.00 | 54 | 1009.9 |
| 20260506153954 | 67 | 270 | 0.9 | 4.3 | 0.00 | 0.00 | 0.00 | 54 | 1009.9 |
| 20260506153454 | 67 | 270 | 1.7 | 3.5 | 0.00 | 0.00 | 0.00 | 54 | 1009.9 |
| 20260506152953 | 67 | 0 | 0.0 | 4.3 | 0.00 | 0.00 | 0.00 | 53 | 1009.9 |
| 20260506152454 | 67 | 315 | 1.7 | 4.3 | 0.00 | 0.00 | 0.00 | 52 | 1009.8 |
| 20260506151954 | 68 | 270 | 1.7 | 6.1 | 0.00 | 0.00 | 0.00 | 52 | 1009.8 |
| 20260506151453 | 68 | 270 | 1.7 | 7.0 | 0.00 | 0.00 | 0.00 | 51 | 1009.8 |
| 20260506150954 | 68 | 270 | 1.7 | 4.3 | 0.00 | 0.00 | 0.00 | 50 | 1009.8 |
| 20260506150453 | 69 | 315 | 3.5 | 7.0 | 0.00 | 0.00 | 0.00 | 50 | 1009.7 |
| 20260506145953 | 69 | 248 | 0.9 | 6.1 | 0.00 | 0.00 | 0.00 | 49 | 1009.7 |
| 20260506145454 | 69 | 270 | 1.7 | 7.0 | 0.00 | 0.00 | 0.00 | 51 | 1009.7 |
| 20260506144953 | 69 | 248 | 1.7 | 7.0 | 0.00 | 0.00 | 0.00 | 50 | 1009.7 |
| 20260506144453 | 69 | 0 | 0.9 | 5.2 | 0.00 | 0.00 | 0.00 | 49 | 1009.7 |
| 20260506143953 | 69 | 270 | 1.7 | 6.1 | 0.00 | 0.00 | 0.00 | 51 | 1009.7 |
| 20260506143453 | 69 | 0 | 0.9 | 4.3 | 0.00 | 0.00 | 0.00 | 50 | 1009.7 |
| 20260506142953 | 69 | 225 | 1.7 | 6.1 | 0.00 | 0.00 | 0.00 | 51 | 1009.7 |
| 20260506142453 | 70 | 270 | 2.6 | 7.0 | 0.00 | 0.00 | 0.00 | 50 | 1009.7 |
| 20260506141953 | 70 | 270 | 0.0 | 5.2 | 0.00 | 0.00 | 0.00 | 49 | 1009.7 |
| 20260506140953 | 70 | 225 | 0.9 | 6.1 | 0.00 | 0.00 | 0.00 | 49 | 1009.7 |
| 20260506140453 | 70 | 180 | 2.6 | 7.0 | 0.00 | 0.00 | 0.00 | 50 | 1009.7 |
| 20260506135953 | 70 | 270 | 1.7 | 5.2 | 0.00 | 0.00 | 0.00 | 49 | 1009.7 |
| 20260506135453 | 70 | 270 | 2.6 | 7.0 | 0.00 | 0.00 | 0.00 | 49 | 1009.7 |
| 20260506134952 | 71 | 270 | 1.7 | 5.2 | 0.00 | 0.00 | 0.00 | 48 | 1009.7 |
| 20260506134453 | 71 | 270 | 2.6 | 6.1 | 0.00 | 0.00 | 0.00 | 50 | 1009.7 |
| 20260506133953 | 71 | 248 | 1.7 | 7.0 | 0.00 | 0.00 | 0.00 | 48 | 1009.6 |
| 20260506133452 | 71 | 270 | 2.6 | 7.0 | 0.00 | 0.00 | 0.00 | 48 | 1009.6 |
| 20260506132953 | 71 | 270 | 2.6 | 8.7 | 0.00 | 0.00 | 0.00 | 48 | 1009.7 |
| 20260506132452 | 71 | 270 | 0.9 | 6.1 | 0.00 | 0.00 | 0.00 | 49 | 1009.7 |
| 20260506131952 | 71 | 270 | 2.6 | 7.0 | 0.00 | 0.00 | 0.00 | 49 | 1009.6 |
| 20260506131453 | 71 | 315 | 1.7 | 4.3 | 0.00 | 0.00 | 0.00 | 49 | 1009.6 |
| 20260506130952 | 70 | 0 | 0.0 | 4.3 | 0.00 | 0.00 | 0.00 | 48 | 1009.6 |
| 20260506130452 | 71 | 225 | 1.7 | 6.1 | 0.00 | 0.00 | 0.00 | 47 | 1009.7 |
| 20260506125952 | 72 | 270 | 2.6 | 6.1 | 0.00 | 0.00 | 0.00 | 48 | 1009.7 |
| 20260506125452 | 71 | 315 | 1.7 | 9.6 | 0.00 | 0.00 | 0.00 | 47 | 1009.7 |
| 20260506124952 | 71 | 270 | 3.5 | 7.0 | 0.00 | 0.00 | 0.00 | 49 | 1009.7 |
| 20260506124452 | 71 | 0 | 1.7 | 6.1 | 0.00 | 0.00 | 0.00 | 49 | 1009.7 |
| 20260506123952 | 72 | 270 | 1.7 | 7.0 | 0.00 | 0.00 | 0.00 | 49 | 1009.6 |
| 20260506123452 | 72 | 225 | 1.7 | 7.0 | 0.00 | 0.00 | 0.00 | 48 | 1009.7 |
| 20260506122952 | 73 | 225 | 0.0 | 6.1 | 0.00 | 0.00 | 0.00 | 48 | 1009.7 |
| 20260506122452 | 72 | 225 | 3.5 | 6.1 | 0.00 | 0.00 | 0.00 | 49 | 1009.7 |
| 20260506121952 | 73 | 315 | 1.7 | 5.2 | 0.00 | 0.00 | 0.00 | 49 | 1009.8 |
| 20260506121452 | 71 | 315 | 1.7 | 4.3 | 0.00 | 0.00 | 0.00 | 49 | 1009.7 |
| 20260506120951 | 72 | 225 | 3.5 | 6.1 | 0.00 | 0.00 | 0.00 | 49 | 1009.8 |
| 20260506120452 | 71 | 270 | 2.6 | 7.0 | 0.00 | 0.00 | 0.00 | 50 | 1009.8 |
| 20260506115952 | 72 | 0 | 1.7 | 5.2 | 0.00 | 0.00 | 0.00 | 48 | 1009.8 |
| 20260506115452 | 72 | 270 | 2.6 | 7.0 | 0.00 | 0.00 | 0.00 | 47 | 1009.8 |
| 20260506114952 | 73 | 315 | 0.9 | 5.2 | 0.00 | 0.00 | 0.00 | 46 | 1009.8 |
| 20260506114451 | 72 | 315 | 1.7 | 4.3 | 0.00 | 0.00 | 0.00 | 47 | 1009.8 |
| 20260506113952 | 73 | 270 | 1.7 | 9.6 | 0.00 | 0.00 | 0.00 | 45 | 1009.8 |
| 20260506113452 | 73 | 338 | 2.6 | 5.2 | 0.00 | 0.00 | 0.00 | 46 | 1009.8 |
| 20260506112951 | 74 | 225 | 0.9 | 5.2 | 0.00 | 0.00 | 0.00 | 44 | 1009.8 |
| 20260506112452 | 74 | 270 | 2.6 | 6.1 | 0.00 | 0.00 | 0.00 | 47 | 1009.9 |
| 20260506111951 | 74 | 270 | 4.3 | 6.1 | 0.00 | 0.00 | 0.00 | 46 | 1009.8 |
| 20260506111451 | 74 | 293 | 0.0 | 4.3 | 0.00 | 0.00 | 0.00 | 44 | 1009.8 |
| 20260506110952 | 76 | 270 | 0.9 | 8.7 | 0.00 | 0.00 | 0.00 | 43 | 1009.8 |
| 20260506110450 | 76 | 158 | 0.9 | 5.2 | 0.00 | 0.00 | 0.00 | 44 | 1009.8 |
| 20260506105950 | 75 | 293 | 1.7 | 7.0 | 0.00 | 0.00 | 0.00 | 45 | 1009.9 |
| 20260506105450 | 76 | 225 | 0.9 | 7.8 | 0.00 | 0.00 | 0.00 | 45 | 1009.9 |
| 20260506104950 | 75 | 225 | 1.7 | 7.0 | 0.00 | 0.00 | 0.00 | 46 | 1009.9 |
| 20260506104047 | 74 | 315 | 1.7 | 3.5 | 0.00 | 0.00 | 0.00 | 46 | 1009.9 |
| 20260506103547 | 74 | 203 | 1.7 | 6.1 | 0.00 | 0.00 | 0.00 | 45 | 1009.9 |
| 20260506103046 | 74 | 270 | 1.7 | 4.3 | 0.00 | 0.00 | 0.00 | 46 | 1010.0 |
| 20260506102547 | 74 | 270 | 0.9 | 7.0 | 0.00 | 0.00 | 0.00 | 45 | 1010.0 |
| 20260506102047 | 74 | 225 | 1.7 | 4.3 | 0.00 | 0.00 | 0.00 | 47 | 1009.9 |
| 20260506101547 | 75 | 0 | 1.7 | 6.1 | 0.00 | 0.00 | 0.00 | 46 | 1010.0 |
| 20260506101047 | 74 | 225 | 2.6 | 6.1 | 0.00 | 0.00 | 0.00 | 47 | 1010.0 |
| 20260506100546 | 75 | 270 | 1.7 | 5.2 | 0.00 | 0.00 | 0.00 | 44 | 1010.0 |
| 20260506100046 | 75 | 270 | 0.9 | 7.0 | 0.00 | 0.00 | 0.00 | 45 | 1010.0 |
| 20260506095547 | 74 | 270 | 1.7 | 4.3 | 0.00 | 0.00 | 0.00 | 46 | 1010.1 |
| 20260506095046 | 74 | 225 | 1.7 | 5.2 | 0.00 | 0.00 | 0.00 | 47 | 1010.1 |
| 20260506094547 | 74 | 248 | 2.6 | 6.1 | 0.00 | 0.00 | 0.00 | 45 | 1010.0 |
| 20260506094046 | 73 | 270 | 0.9 | 4.3 | 0.00 | 0.00 | 0.00 | 47 | 1010.0 |
| 20260506093546 | 74 | 180 | 0.9 | 6.1 | 0.00 | 0.00 | 0.00 | 45 | 1010.0 |
| 20260506093047 | 76 | 270 | 0.9 | 4.3 | 0.00 | 0.00 | 0.00 | 45 | 1010.0 |
| 20260506092546 | 75 | 90 | 0.0 | 5.2 | 0.00 | 0.00 | 0.00 | 46 | 1010.1 |
| 20260506092046 | 76 | 270 | 1.7 | 6.1 | 0.00 | 0.00 | 0.00 | 44 | 1010.1 |
| 20260506091545 | 76 | 270 | 0.0 | 2.6 | 0.00 | 0.00 | 0.00 | 43 | 1010.0 |
| 20260506091046 | 75 | 248 | 0.9 | 3.5 | 0.00 | 0.00 | 0.00 | 43 | 1010.0 |
| 20260506090546 | 75 | 225 | 0.0 | 4.3 | 0.00 | 0.00 | 0.00 | 43 | 1010.0 |
| 20260506090046 | 75 | 0 | 3.5 | 7.0 | 0.00 | 0.00 | 0.00 | 43 | 1010.1 |
| 20260506085546 | 75 | 270 | 0.9 | 5.2 | 0.00 | 0.00 | 0.00 | 44 | 1010.1 |
| 20260506085045 | 76 | 225 | 1.7 | 7.0 | 0.00 | 0.00 | 0.00 | 44 | 1010.1 |
| 20260506084545 | 75 | 225 | 0.9 | 4.3 | 0.00 | 0.00 | 0.00 | 43 | 1010.1 |
| 20260506084046 | 75 | 270 | 0.9 | 4.3 | 0.00 | 0.00 | 0.00 | 42 | 1010.2 |
| 20260506083545 | 75 | 270 | 1.7 | 4.3 | 0.00 | 0.00 | 0.00 | 44 | 1010.2 |
| 20260506083045 | 75 | 225 | 0.0 | 3.5 | 0.00 | 0.00 | 0.00 | 44 | 1010.3 |
| 20260506082546 | 75 | 180 | 0.9 | 5.2 | 0.00 | 0.00 | 0.00 | 45 | 1010.4 |
| 20260506082045 | 75 | 270 | 0.9 | 4.3 | 0.00 | 0.00 | 0.00 | 48 | 1010.4 |
| 20260506081546 | 74 | 293 | 3.5 | 6.1 | 0.00 | 0.00 | 0.00 | 50 | 1010.4 |
| 20260506081045 | 74 | 135 | 0.0 | 3.5 | 0.00 | 0.00 | 0.00 | 46 | 1010.4 |
| 20260506080545 | 74 | 0 | 0.0 | 4.3 | 0.00 | 0.00 | 0.00 | 46 | 1010.4 |